DW7858 Weather Reports


Display with metric or nautical units.
time (UTC)temp
F
wind
direction
speed
MPH
gust
MPH
rain 1hr
in
rain 24hr
in
rain mn
in
humidity
%
barometer
mb
20190325181650 72 324 6.0 13.0 0.00 0.00 0.00 56 1014.7
20190325180120 73 344 3.0 9.0 0.00 0.00 0.00 56 1014.9
20190325174545 72 346 8.0 16.0 0.00 0.00 0.00 59 1015.1
20190325173056 71 296 6.0 14.0 0.00 0.00 0.00 61 1015.3
20190325171552 72 330 6.0 15.0 0.00 0.00 0.00 60 1015.8
20190325170048 72 351 7.0 12.0 0.00 0.00 0.00 61 1016.0
20190325164551 71 315 7.0 15.0 0.00 0.00 0.00 61 1016.1
20190325163032 70 327 5.0 15.0 0.00 0.00 0.00 61 1016.4
20190325161507 71 345 6.0 14.0 0.00 0.00 0.00 59 1016.8
20190325160001 69 302 3.0 10.0 0.00 0.00 0.00 52 1017.0
20190325154627 69 296 5.0 16.0 0.00 0.00 0.00 50 1017.2
20190325153135 69 340 6.0 13.0 0.00 0.00 0.00 47 1017.5
20190325151610 69 340 5.0 11.0 0.00 0.00 0.00 46 1017.7
20190325150154 68 315 2.0 13.0 0.00 0.00 0.00 43 1017.9
20190325144620 66 296 5.0 10.0 0.00 0.00 0.00 41 1018.1
20190325143131 66 319 3.0 9.0 0.00 0.00 0.00 37 1018.2
20190325141547 65 310 6.0 11.0 0.00 0.00 0.00 34 1018.2
20190325140100 64 308 4.0 11.0 0.00 0.00 0.00 30 1018.2
20190325134536 64 315 4.0 11.0 0.00 0.00 0.00 20 1018.3
20190325133043 62 309 6.0 9.0 0.00 0.00 0.00 100 1018.3
20190325131521 60 299 3.0 8.0 0.00 0.00 0.00 100 1018.3
20190325130040 59 298 4.0 8.0 0.00 0.00 0.00 100 1018.4
20190325124512 59 298 4.0 7.0 0.00 0.00 0.00 100 1018.5
20190325123307 58 298 4.0 7.0 0.00 0.00 0.00 100 1018.6
20190325121643 57 298 3.0 6.0 0.00 0.00 0.00 100 1018.6
20190325120153 57 298 2.0 5.0 0.00 0.00 0.00 100 1018.7
20190325114615 57 298 2.0 6.0 0.00 0.00 0.00 100 1018.8
20190325113109 57 298 2.0 5.0 0.00 0.00 0.00 100 1018.8
20190325111647 57 298 3.0 5.0 0.00 0.00 0.00 100 1018.8
20190325110127 57 298 4.0 6.0 0.00 0.00 0.00 100 1018.9
20190325104604 57 298 3.0 6.0 0.00 0.00 0.00 100 1018.9
20190325103049 56 298 3.0 5.0 0.00 0.00 0.00 100 1018.8
20190325101533 56 298 3.0 6.0 0.00 0.00 0.00 100 1018.9
20190325100032 56 298 3.0 6.0 0.00 0.00 0.00 100 1018.9
20190325094519 56 298 3.0 6.0 0.00 0.00 0.00 100 1018.9
20190325093024 56 298 3.0 6.0 0.00 0.00 0.00 100 1018.8
20190325090234 56 298 4.0 6.0 0.00 0.00 0.00 100 1019.0
20190325084629 56 298 3.0 6.0 0.00 0.00 0.00 100 1019.2
20190325083148 56 298 3.0 5.0 0.00 0.00 0.00 100 1019.3
20190325081630 55 298 3.0 5.0 0.00 0.00 0.00 100 1019.6
20190325080105 55 298 3.0 6.0 0.00 0.00 0.00 100 1019.7
20190325074633 55 298 3.0 5.0 0.00 0.00 0.00 100 1019.7
20190325073124 55 298 3.0 5.0 0.00 0.00 0.00 100 1019.8
20190325071613 56 298 3.0 5.0 0.00 0.00 0.00 100 1020.0
20190325070039 56 298 3.0 4.0 0.00 0.00 0.00 100 1020.3
20190325064522 55 298 2.0 4.0 0.00 0.00 0.00 100 1020.4
20190325063043 56 298 2.0 4.0 0.00 0.00 0.00 4 1020.6
20190325061549 56 298 2.0 4.0 0.00 0.00 0.00 12 1020.8
20190325060021 56 298 3.0 4.0 0.00 0.00 0.00 20 1021.0
20190325054521 56 298 1.0 4.0 0.00 0.00 0.00 31 1021.2
20190325053010 56 298 2.0 4.0 0.00 0.00 0.00 46 1021.4
20190325051521 56 298 2.0 5.0 0.00 0.00 0.00 45 1021.7
20190325050019 56 298 2.0 5.0 0.00 0.00 0.00 48 1021.7
20190325044503 56 298 3.0 5.0 0.00 0.00 0.00 49 1021.6
20190325043149 56 298 2.0 4.0 0.00 0.00 0.00 56 1022.0
20190325041809 56 298 0.0 4.0 0.00 0.00 0.00 57 1022.0
20190325040133 56 298 2.0 5.0 0.00 0.00 0.00 60 1021.9
20190325034628 57 298 1.0 6.0 0.00 0.00 0.00 58 1021.9
20190325033207 57 295 5.0 8.0 0.00 0.00 0.00 59 1021.8
20190325031638 57 294 2.0 7.0 0.00 0.00 0.00 58 1021.9
20190325030128 57 286 4.0 9.0 0.00 0.00 0.00 62 1021.8
20190325024548 57 286 5.0 9.0 0.00 0.00 0.00 63 1021.9
20190325023046 56 288 5.0 8.0 0.00 0.00 0.00 63 1022.1
20190325021539 57 286 4.0 8.0 0.00 0.00 0.00 63 1022.2
20190325020053 57 284 6.0 9.0 0.00 0.00 0.00 63 1022.2
20190325014524 57 293 5.0 9.0 0.00 0.00 0.00 63 1022.5
20190325013015 58 287 7.0 10.0 0.00 0.00 0.00 63 1022.5
20190325011519 58 288 4.0 8.0 0.00 0.00 0.00 64 1022.3
20190325010002 58 281 3.0 8.0 0.00 0.00 0.00 62 1022.3
20190325004708 59 279 4.0 11.0 0.00 0.00 0.00 60 1022.4
20190325003309 59 277 5.0 10.0 0.00 0.00 0.00 60 1022.4
20190325001643 60 274 5.0 9.0 0.00 0.00 0.00 59 1022.3
20190325000115 60 286 5.0 11.0 0.00 0.00 0.00 59 1022.1
20190324234638 61 284 4.0 10.0 0.00 0.00 0.00 55 1022.0
20190324233047 61 278 6.0 9.0 0.00 0.00 0.00 52 1022.0
20190324231544 62 272 3.0 11.0 0.00 0.00 0.00 53 1022.1
20190324230033 62 290 5.0 10.0 0.00 0.00 0.00 49 1022.1
20190324224608 63 288 9.0 13.0 0.00 0.00 0.00 46 1022.1
20190324223057 63 291 9.0 14.0 0.00 0.00 0.00 47 1022.0
20190324221529 64 276 7.0 13.0 0.00 0.00 0.00 43 1022.0
20190324220017 64 283 8.0 12.0 0.00 0.00 0.00 42 1022.1
20190324214534 65 265 7.0 14.0 0.00 0.00 0.00 37 1022.2
20190324213001 65 293 8.0 14.0 0.00 0.00 0.00 41 1022.3
20190324211657 65 269 8.0 16.0 0.00 0.00 0.00 38 1022.3
20190324210146 65 300 8.0 14.0 0.00 0.00 0.00 44 1022.6
20190324204757 65 305 8.0 14.0 0.00 0.00 0.00 41 1022.7
20190324203159 65 295 7.0 11.0 0.00 0.00 0.00 42 1022.8
20190324201611 66 303 8.0 13.0 0.00 0.00 0.00 41 1023.0
20190324200049 66 280 4.0 11.0 0.00 0.00 0.00 45 1023.2
20190324194557 66 292 5.0 10.0 0.00 0.00 0.00 35 1023.3
20190324193035 65 297 8.0 13.0 0.00 0.00 0.00 40 1023.7
20190324191534 65 286 8.0 13.0 0.00 0.00 0.00 42 1023.9
20190324190024 65 302 3.0 13.0 0.00 0.00 0.00 37 1024.1
20190324184518 65 306 8.0 11.0 0.00 0.00 0.00 37 1024.4
20190324183010 64 293 1.0 8.0 0.00 0.00 0.00 46 1024.7